CAPE
0 978 1039 1093 1197 1170 981 983 887 950 1203 1049 956 755 761 773 715 574 490 507 558 701 681 496 631 686 699 594 718 742 894 825 607
0 1097 1147 1118 1200 1236 1087 1055 931 967 1137 1173 1123 1108 1007 926 888 789 655 569 803 912 820 696 532 597 613 726 793 720 565 636 737
129 1029 1209 1169 1193 1302 1240 1203 1111 1103 1182 1158 1352 1293 1147 1127 1008 874 772 794 707 719 728 574 814 869 857 755 716 721 613 902 1041
299 308 1339 1276 1238 1367 1356 1320 1277 1411 1640 1532 1615 1454 1567 1580 1402 1192 1038 976 1033 821 767 615 645 785 847 869 662 492 529 738 677
312 441 1260 1449 1292 1331 1543 1397 1294 1553 1941 1889 1929 1820 1711 1677 1780 1657 1520 1212 1122 1038 1008 998 648 537 594 602 623 473 614 566 797
27 206 775 1219 1321 1490 1422 1246 1258 1305 1969 2020 2063 2132 1997 1903 1873 1918 1749 1698 1601 1705 1645 1380 854 1026 957 648 549 680 763 891 1112
79 16 225 569 773 1120 1375 1361 1429 1388 1522 1968 2282 2298 2261 2169 2139 2167 2122 2057 1927 1680 1663 1466 1038 977 1058 1105 962 782 884 1010 1116
5 127 41 49 151 476 708 549 1113 1349 1473 1572 1484 2329 2338 2229 2236 2249 2295 2379 2354 2093 1833 1747 1629 1213 1065 987 1194 1080 1111 1309 1415
47 84 179 31 76 48 225 342 243 677 846 1211 700 956 2392 2472 2429 2351 2371 2362 2367 2382 2181 1858 1870 1723 1464 1402 1140 1110 1158 1160 1299
150 207 208 271 205 160 8 138 120 30 39 639 225 879 2002 2461 2497 2432 2471 2398 2393 2285 2269 2025 1973 1918 1653 1379 1530 1532 1482 1556 1415
137 211 160 118 106 110 258 1 0 0 0 29 88 714 2070 2524 2400 2496 2428 2509 2470 2370 2337 2330 2151 2061 1982 1807 1450 1124 1461 1466 1465
197 115 180 231 179 105 95 250 48 24 35 4 2 1554 2300 2555 2436 2584 2561 2593 2621 2610 2430 2382 2404 2202 2165 2110 2034 1986 1871 1628 1727
73 59 51 32 295 267 114 199 840 561 24 332 94 1178 1501 2156 2618 2650 2790 2812 2726 2759 2743 2609 2515 2334 2227 2232 2123 1927 1922 1869 1789
45 11 2 1 19 149 134 110 635 703 925 1087 503 996 1300 995 1894 2319 2631 2586 2825 2695 2648 2683 2553 2137 1602 1380 987 756 944 1337 2135
2 0 0 0 0 0 79 4 310 276 641 980 1243 1594 1562 1737 1542 1569 2174 2505 2678 2569 2620 2689 2331 2119 1670 1265 760 393 0 172 1486
0 1 0 0 0 0 0 4 72 219 78 405 461 841 1459 1432 1426 1266 1413 1582 1809 2147 2184 2255 2131 1951 1485 1223 314 71 0 2 953
0 0 0 0 0 0 0 0 13 81 111 8 70 123 393 787 1245 1348 1571 1150 1334 1453 1657 1490 1593 1265 627 197 111 19 102 92 549
0 0 0 0 0 0 0 0 0 18 134 106 65 24 27 332 482 595 880 1248 1021 1014 1054 947 709 445 215 286 363 450 417 251 76
0 0 0 0 0 0 0 0 0 0 23 281 330 154 62 75 215 232 329 213 409 997 1286 1191 1010 833 775 670 277 0 62 0 1
0 0 0 0 0 0 0 0 0 16 21 40 214 117 51 72 94 87 119 174 173 623 741 737 688 795 1058 758 142 34 0 62 269
CIN
-0 -272 -223 -181 -164 -119 -72 -32 -327 -300 -265 -223 -204 -191 -172 -144 -99 -89 -122 -141 -134 -59 -27 -31 -40 -39 -45 -41 -39 -26 -30 -24 -42
-0 -244 -247 -182 -170 -134 -70 -32 -344 -315 -289 -235 -221 -182 -160 -160 -135 -97 -111 -117 -83 -42 -21 -25 -31 -43 -58 -55 -51 -22 -43 -39 -20
-221 -228 -267 -211 -183 -134 -81 -356 -328 -312 -312 -295 -263 -210 -176 -158 -140 -122 -136 -95 -76 -92 -46 -55 -70 -41 -27 -19 -38 -38 -40 -30 -19
-124 -206 -248 -246 -190 -124 -91 -341 -308 -303 -304 -288 -271 -248 -214 -167 -144 -81 -59 -122 -76 -92 -53 -77 -76 -40 -21 -16 -37 -21 -76 -23 -28
-99 -165 -172 -194 -216 -162 -86 -67 -280 -327 -315 -301 -285 -262 -241 -216 -176 -150 -101 -52 -88 -59 -49 -26 -56 -101 -59 -35 -30 -63 -68 -65 -44
-539 -92 -137 -80 -113 -135 -92 -111 -77 -208 -348 -326 -302 -255 -252 -226 -213 -163 -152 -125 -66 -9 -12 -17 -62 -70 -37 -55 -105 -78 -55 -62 -32
-212 -153 -54 -70 -52 -85 -107 -111 -98 -152 -109 -146 -292 -273 -239 -229 -211 -178 -157 -117 -97 -65 -13 -19 -49 -95 -74 -52 -45 -96 -95 -70 -41
-574 -471 -227 -283 -43 -175 -249 -61 -63 -96 -139 -139 -62 -102 -274 -267 -246 -207 -165 -114 -87 -67 -39 -20 -17 -47 -81 -76 -38 -41 -51 -37 -21
-48 -431 -386 -455 -469 -25 -95 -45 -13 -20 -38 -74 -92 -28 -105 -268 -219 -199 -168 -129 -97 -63 -35 -37 -17 -19 -44 -43 -45 -48 -32 -31 -23
-261 -389 -471 -320 -324 -387 -138 -106 -77 -124 -42 -39 -67 -30 -2 -181 -178 -162 -143 -110 -88 -75 -54 -41 -46 -22 -24 -41 -49 -29 -15 -10 -8
-167 -199 -219 -289 -314 -294 -237 -110 -0 -0 -0 -35 -49 -34 -4 -137 -132 -118 -122 -82 -68 -85 -43 -18 -29 -32 -15 -11 -26 -53 -30 -10 -5
-112 -201 -230 -123 -65 -79 -259 -80 -60 -0 -0 -18 -17 -4 -69 -105 -115 -104 -86 -68 -47 -95 -44 -29 -14 -58 -32 -15 -16 -11 -7 -11 -4
-123 -161 -236 -250 -2 -2 -20 -31 -4 -4 -52 -30 -32 -3 -19 -46 -20 -17 -60 -62 -57 -63 -41 -19 -21 -27 -44 -34 -23 -25 -29 -38 -45
-75 -174 -105 -55 -3 -22 -25 -55 -127 -78 -29 -18 -60 -17 -26 -94 -36 -18 -17 -16 -10 -7 -11 -26 -14 -12 -11 -6 -39 -31 -0 -2 -8
-26 -0 -0 -0 -0 -0 -25 -55 -69 -91 -27 -66 -52 -77 -85 -41 -68 -37 -17 -13 -17 -19 -10 -5 -4 -0 -13 -61 -89 -38 -0 -59 -22
-0 -22 -0 -0 -0 -0 -0 -25 -96 -9 -63 -13 -43 -35 -35 -73 -54 -67 -53 -51 -30 -36 -33 -24 -19 -25 -79 -65 -91 -90 -0 -150 -107
-0 -0 -0 -0 -0 -4 -0 -0 -53 -87 -35 -92 -113 -66 -47 -53 -41 -34 -15 -62 -44 -55 -34 -70 -54 -74 -74 -68 -54 -575 -576 -234 -126
-0 -0 -0 -0 -0 -0 -0 -0 -0 -106 -81 -21 -94 -93 -72 -16 -24 -19 -62 -24 -32 -46 -64 -96 -62 -111 -197 -181 -170 -114 -79 -156 -186
-0 -0 -0 -0 -0 -0 -0 -0 -0 -0 -73 -33 -19 -29 -123 -136 -19 -28 -20 -41 -122 -44 -26 -23 -78 -88 -95 -116 -199 -0 -225 -0 -163
-0 -0 -0 -0 -0 -0 -0 -0 -0 -48 -68 -41 -30 -35 -61 -95 -104 -93 -89 -42 -144 -69 -30 -27 -54 -103 -83 -83 -133 -349 -5 -163 -114
Wind_Speed
nan 27 23 25 27 27 25 25 24 20 16 16 14 13 11 8 6 5 5 6 11 12 8 12 17 16 18 20 19 21 19 22 17
nan 27 25 29 25 26 26 26 27 25 19 14 13 13 9 8 7 6 6 8 12 11 15 17 17 15 14 19 20 20 22 21 18
33 21 24 24 25 26 29 25 26 26 24 21 16 11 7 5 5 4 3 6 7 11 11 14 15 12 10 15 17 21 24 21 19
40 27 28 25 28 24 25 26 26 23 21 19 16 14 11 10 6 4 3 3 6 6 6 11 14 11 10 5 11 19 21 19 17
43 50 38 29 26 16 27 25 27 28 22 19 17 16 13 11 11 11 6 3 2 8 6 9 12 11 9 7 3 13 17 18 17
nan 45 46 35 38 42 38 35 20 13 22 20 16 14 15 12 11 11 8 8 1 2 2 5 10 12 11 11 11 11 12 13 14
nan nan 46 36 40 39 59 41 31 34 33 18 18 19 15 15 12 8 10 9 9 7 1 2 5 9 10 12 14 15 15 17 16
nan 52 nan nan 37 49 67 33 33 37 33 27 35 10 21 16 14 13 10 7 8 10 6 3 6 8 9 10 12 15 17 18 17
nan nan 40 nan nan nan 41 64 55 51 47 45 45 41 12 18 14 14 10 9 7 9 6 4 9 11 11 11 10 11 16 18 17
62 51 47 51 46 55 nan 63 57 nan nan 55 48 42 22 20 16 14 12 8 11 10 8 8 9 11 14 13 13 13 13 13 14
63 54 54 54 49 54 54 nan nan nan nan nan nan 42 17 24 22 19 18 13 11 16 14 9 10 9 12 15 14 15 14 13 13
62 62 57 57 53 54 nan 67 nan nan nan nan nan 23 29 31 23 23 25 21 17 19 20 17 17 17 18 16 14 16 15 17 17
nan nan nan nan 54 45 44 63 67 68 nan 38 nan 75 51 41 29 26 29 27 25 24 23 23 23 23 24 25 24 21 18 18 20
nan nan nan nan nan 48 51 53 56 46 40 43 24 38 52 33 36 26 26 28 29 27 28 34 36 40 42 45 41 42 44 32 20
nan nan nan nan nan nan nan nan 51 37 34 32 31 40 54 28 39 34 28 30 32 33 35 39 42 43 45 38 39 52 nan 36 18
nan nan nan nan nan nan nan nan nan 37 nan 49 47 36 30 35 43 38 29 32 38 36 41 40 44 44 38 37 32 nan nan nan 11
nan nan nan nan nan nan nan nan nan nan 37 nan nan 43 41 45 45 43 39 46 45 44 41 46 40 47 50 42 25 nan 27 nan 21
nan nan nan nan nan nan nan nan nan nan 33 40 nan nan nan 48 52 48 51 47 50 48 47 51 53 49 50 48 39 37 36 29 nan
nan nan nan nan nan nan nan nan nan nan nan 35 42 44 nan nan 56 57 58 59 56 51 56 54 56 62 60 51 48 nan nan nan nan
nan nan nan nan nan nan nan nan nan nan nan nan 37 42 nan nan nan nan 57 59 58 56 56 55 54 53 59 50 52 nan nan nan 45
Wind_Direction
nan 344 353 353 348 344 344 346 344 341 347 352 338 334 329 308 288 223 211 224 223 234 269 258 291 282 259 247 244 238 243 245 249
nan 331 339 348 340 334 335 340 342 342 337 346 341 349 326 320 293 265 234 233 248 249 256 270 287 295 277 259 246 239 240 241 248
225 293 311 327 340 330 321 334 340 338 335 336 334 337 329 297 304 315 283 256 258 249 249 260 295 307 311 250 239 243 238 242 251
224 238 294 327 327 327 313 324 327 332 327 327 326 324 320 315 275 216 200 267 285 291 254 250 281 309 320 287 246 247 238 242 249
227 232 241 252 241 255 314 318 322 321 321 321 323 324 316 317 307 298 282 164 267 290 293 268 286 288 302 305 269 236 246 256 257
nan 232 237 220 236 246 230 204 222 305 313 312 309 316 316 310 304 298 302 304 272 141 287 283 283 287 279 280 276 271 265 262 258
nan nan 236 238 243 226 237 213 207 216 201 197 309 311 310 305 303 290 283 274 274 297 73 264 261 271 279 275 274 274 260 256 260
nan 223 nan nan 241 244 263 199 190 219 217 209 185 157 309 309 299 291 281 273 268 266 288 288 269 263 265 269 274 273 272 269 269
nan nan 248 nan nan nan 251 261 192 190 224 200 189 159 154 276 270 268 270 261 271 266 272 289 280 279 274 270 267 282 295 288 283
253 250 234 242 239 247 nan 250 239 nan nan 185 181 158 141 241 243 249 250 254 269 277 280 282 293 291 294 295 287 297 302 307 283
254 259 256 253 258 261 257 nan nan nan nan nan nan 136 164 229 241 250 256 255 268 275 283 307 296 296 290 283 285 306 308 310 285
261 253 254 264 262 266 nan 279 nan nan nan nan nan 112 211 224 233 248 258 260 263 268 273 279 284 280 291 297 294 305 297 280 269
nan nan nan nan 269 275 285 281 285 284 nan 308 nan 199 203 206 213 232 245 252 251 254 264 277 277 281 280 287 276 282 294 285 264
nan nan nan nan nan 275 277 267 276 285 305 298 240 184 209 204 211 207 227 244 253 255 261 264 262 259 258 260 259 249 229 203 233
nan nan nan nan nan nan nan nan 258 252 254 248 218 229 212 219 222 216 211 238 247 252 259 261 268 269 269 268 274 277 nan 116 110
nan nan nan nan nan nan nan nan nan 261 nan 255 258 250 258 244 244 249 230 230 250 242 258 263 271 269 271 268 277 nan nan nan 349
nan nan nan nan nan nan nan nan nan nan 255 nan nan 252 248 247 236 239 244 245 252 253 252 255 268 273 270 260 282 nan 291 nan 295
nan nan nan nan nan nan nan nan nan nan 238 246 nan nan nan 234 236 240 248 254 254 261 261 262 264 266 272 277 275 277 288 286 nan
nan nan nan nan nan nan nan nan nan nan nan 247 242 233 nan nan 240 242 241 244 250 255 255 257 265 269 274 271 271 nan nan nan nan
nan nan nan nan nan nan nan nan nan nan nan nan 248 250 nan nan nan nan 249 249 247 249 254 257 266 270 266 270 269 nan nan nan 278